Flag for Netherlands Weather past 2 weeks in Leiden, Netherlands

Now
48 °F

Overcast.


Feels Like: 43 °F
Forecast: 42 / 51 °F
Wind: 12 mph from Southwest

Location: Rotterdam Zestienhoven Airport

Current Time: Mar 6, 2015 at 3:30:02 PM

Latest Report: Mar 6, 2015 at 2:55 PM


Visibility: N/A

Pressure: 30.54 "Hg

Humidity: 62%

Dew point: 36 °F

Location of LeidenLocation

Historic Weather in Leiden — Graph

°F

Leiden temperature yesterday

Maximum temperature yesterday: 48 °F (at 12:25 PM)
Minimum temperature yesterday: 32 °F (at 5:25 AM)
Average temperature yesterday: 42 °F

Past Weeks' High & Low Weather Summary

 TemperatureHumidityPressure
High50 °F (Mar 1, 11:25 AM)100% (Feb 20, 1:55 PM)30.66 "Hg (Feb 20, 1:55 PM)
Low30 °F (Feb 22, 2:25 AM)53% (Mar 2, 5:25 PM)29.27 "Hg (Feb 23, 3:25 AM)
Average42 °F82%29.87 "Hg
* Reported Feb 19 2:25 PM — Mar 6 2:25 PM, Leiden, Weather by CustomWeather, © 2015

Note: Actual official high and low records may vary slightly from our data, if they occured in-between our weather recording intervals... More about our weather records

Advertising

Leiden weather history for previous 24 hours

 ConditionsComfort  
Time TempWeatherWind HumidityBarometerVisibility
2:25 PM
Fri, Mar 6
48 °FOvercast.10 mph62%30.54 "HgN/A
1:55 PM48 °FOvercast.12 mph58%30.57 "HgN/A
1:25 PM46 °FOvercast.12 mph62%30.57 "HgN/A
12:55 PM46 °FOvercast.13 mph62%30.57 "HgN/A
12:25 PM48 °FOvercast.14 mph66%30.57 "HgN/A
11:55 AM46 °FOvercast.9 mph71%30.57 "HgN/A
11:25 AM46 °FOvercast.12 mph71%30.57 "HgN/A
10:55 AM46 °FOvercast.10 mph76%30.60 "HgN/A
10:25 AM46 °FOvercast.9 mph76%30.60 "HgN/A
9:55 AM45 °FOvercast.12 mph81%30.60 "HgN/A
9:25 AM45 °FOvercast.10 mph81%30.60 "HgN/A
8:55 AM45 °FOvercast.12 mph81%30.57 "HgN/A
8:25 AM45 °FOvercast.10 mph81%30.57 "HgN/A
7:55 AM45 °FOvercast.9 mph81%30.57 "HgN/A
7:25 AM45 °FOvercast.8 mph81%30.57 "HgN/A
6:55 AM45 °FOvercast.9 mph81%30.57 "HgN/A
6:25 AM45 °FMostly cloudy.8 mph81%30.57 "HgN/A
5:55 AM45 °FOvercast.9 mph81%30.57 "HgN/A
5:25 AM43 °FOvercast.8 mph93%30.57 "HgN/A
4:55 AM43 °FOvercast.8 mph93%30.57 "HgN/A
4:25 AM45 °FOvercast.8 mph87%30.57 "HgN/A
3:55 AM43 °FOvercast.7 mph93%30.60 "HgN/A
3:25 AM45 °FOvercast.8 mph87%30.60 "HgN/A
2:55 AM45 °FOvercast.8 mph81%30.60 "HgN/A
2:25 AM45 °FOvercast.7 mph81%30.60 "HgN/A
1:55 AM45 °FOvercast.8 mph81%30.60 "HgN/A
1:25 AM45 °FOvercast.9 mph81%30.60 "HgN/A
12:55 AM45 °FOvercast.8 mph81%30.60 "HgN/A
12:25 AM45 °FOvercast.7 mph81%30.60 "HgN/A
11:55 PM
Thu, Mar 5
45 °FOvercast.8 mph81%30.60 "HgN/A
11:25 PM43 °FOvercast.7 mph87%30.60 "HgN/A
10:55 PM45 °FOvercast.7 mph76%30.60 "HgN/A
10:25 PM43 °FOvercast.7 mph81%30.60 "HgN/A
9:55 PM43 °FMostly cloudy.7 mph81%30.63 "HgN/A
9:25 PM43 °FOvercast.6 mph81%30.63 "HgN/A
8:55 PM43 °FOvercast.9 mph81%30.63 "HgN/A
8:25 PM43 °FOvercast.8 mph81%30.63 "HgN/A
7:55 PM43 °FOvercast.8 mph81%30.63 "HgN/A
7:25 PM41 °FPassing clouds.7 mph87%30.63 "HgN/A
6:55 PM43 °FQuite cool.8 mph76%30.63 "HgN/A
6:25 PM43 °FClear.7 mph76%30.63 "HgN/A
5:55 PM45 °FClear.8 mph71%30.63 "HgN/A
5:25 PM45 °FClear.9 mph71%30.63 "HgN/A
4:55 PM46 °FClear.10 mph66%30.63 "HgN/A
4:25 PM46 °FClear.12 mph71%30.63 "HgN/A
3:55 PM46 °FClear.12 mph66%30.63 "HgN/A
3:25 PM48 °FClear.14 mph62%30.63 "HgN/A
Weather by CustomWeather, © 2015

See weather overviewHow to use our weather pages